{"data":{"norad_id":47389,"intl_designator":"2021-005AS","name":"STARLINK-2110","alt_names":[],"object_type":"PAYLOAD","status":"ACTIVE","operator":null,"country":"US","launch_date":"2021-01-20","launch_site_code":"AFETR","launch_vehicle":null,"mission":null,"orbit_class":"UNKNOWN","rcs_meters":null,"size_class":null,"mass_kg":null,"dimensions":null,"purposes":["comms"],"wikipedia_slug":null,"has_3d_model":false,"image_url":null,"decayed_at":null,"tle_current":{"epoch":"2026-09-19T06:03:21.400128Z","epoch_age_seconds":133634,"freshness":"FRESH","line1":"1 47389U 21005AS  26262.25233102  .00039923  00000+0  10406-2 0  9993","line2":"2 47389  53.1545 213.7651 0004764  60.1733 299.9745 15.38478656313085","mean_motion":15.38478656,"eccentricity":0.0004764,"inclination_deg":53.1545,"raan_deg":213.7651,"arg_perigee_deg":60.1733,"mean_anomaly_deg":299.9745,"bstar":0.0010406,"rev_number":31308,"period_min":93.598958580547,"perigee_km":447.35419097726,"apogee_km":453.86061864617,"semimajor_km":6828.7444048117,"source":"CELESTRAK","updated_at":"2026-09-20T09:00:38.594304Z"}}}